Wind_Speed
4 5 7 8 11 12 14 16 19 21 22 23 25 26 26 27 28 29 29 31 30 30 31 31 31 31 31 31 31 30 30 30 29 29 29 29 28 27
3 4 6 7 9 11 13 15 17 19 21 22 24 25 26 28 28 29 30 30 31 31 31 32 33 33 32 32 32 32 32 32 32 31 31 31 30 29
4 4 5 7 8 11 13 14 16 18 20 21 22 24 26 26 27 28 29 30 30 31 32 32 33 33 34 34 34 34 34 34 34 34 34 34 33 33
5 5 5 6 8 10 12 14 16 17 19 20 21 23 25 26 27 28 28 28 30 30 32 32 33 34 35 36 37 37 36 35 36 36 36 36 35 35
6 6 6 6 8 9 11 13 15 17 18 20 20 21 23 24 26 27 29 29 29 30 31 32 34 35 36 37 38 38 38 38 37 37 37 38 37 37
7 7 7 7 8 9 10 12 14 16 17 19 20 21 22 23 24 25 27 29 29 29 30 31 32 34 36 37 38 39 39 39 39 39 39 39 39 39
8 8 8 7 8 8 10 12 13 15 16 17 19 20 21 22 23 23 24 25 26 27 29 30 31 33 35 36 38 39 39 39 40 40 40 41 41 42
9 8 8 8 8 8 9 10 12 13 14 16 17 18 19 20 22 23 24 24 26 26 27 28 30 32 34 36 37 38 39 40 40 40 40 41 42 44
10 10 9 9 8 9 9 9 11 12 13 14 15 16 18 19 20 22 23 24 25 26 28 28 30 31 32 34 36 37 38 39 40 41 41 42 42 43
11 11 10 10 10 10 10 10 11 11 13 14 15 16 16 17 18 20 21 22 24 25 27 28 29 30 32 33 35 36 38 39 40 41 41 41 41 42
11 11 11 11 11 11 11 11 12 12 13 15 15 15 16 17 18 20 21 22 24 25 26 27 28 29 31 33 34 36 37 38 39 40 40 41 40 41
12 12 11 11 12 11 12 12 12 13 14 15 16 17 17 18 19 20 21 22 23 24 25 26 27 28 30 32 34 35 35 37 38 39 40 41 42 42
12 12 12 12 12 12 12 13 13 14 15 15 16 17 18 19 20 21 22 23 24 25 25 26 27 28 29 31 33 34 35 36 37 39 40 41 42 43
14 13 13 12 12 12 13 13 14 15 16 16 17 18 19 20 21 22 23 24 24 25 26 27 28 29 30 31 33 34 36 37 38 40 40 41 42 43
15 15 14 14 14 14 14 15 15 16 16 17 18 19 20 21 22 23 24 24 25 27 28 28 29 30 31 32 33 34 36 37 38 40 41 42 43 44
17 16 16 15 15 15 15 16 16 17 17 18 19 20 21 22 23 24 24 26 27 28 29 30 30 31 32 32 34 35 36 37 39 40 41 43 44 45
19 18 17 17 17 17 17 17 17 18 18 19 20 21 22 23 24 25 26 27 28 29 30 31 32 33 35 36 36 37 38 38 40 41 42 43 44 45
20 20 19 19 19 19 19 19 19 20 20 21 22 23 24 25 26 27 28 29 30 31 32 33 35 35 36 36 37 38 39 40 41 42 43 44 45 46
22 22 21 21 21 21 21 21 21 22 23 23 24 25 25 26 27 28 29 30 31 32 33 35 36 37 38 38 38 39 40 41 42 43 44 45 45 46
24 24 23 23 23 23 23 23 23 24 24 25 25 26 27 28 29 30 31 32 33 34 35 36 37 38 39 39 39 40 42 43 44 44 45 46 47 47
26 25 25 25 25 25 25 25 25 26 26 26 27 28 29 30 31 32 33 34 35 35 36 37 38 39 39 39 40 41 42 44 45 46 46 47 48 48
27 27 27 27 26 27 27 27 27 28 28 28 29 30 30 31 32 33 34 35 35 36 37 38 39 40 40 41 41 42 43 45 46 47 48 48 49 49
28 28 28 28 28 28 28 29 30 30 30 30 31 32 32 33 33 34 35 35 36 37 38 38 39 41 41 42 43 44 45 45 46 47 48 50 50 50
Wind_Direction
245 238 237 234 229 226 224 222 222 223 223 224 224 224 227 229 229 229 231 231 233 233 234 236 236 237 238 238 238 240 240 240 241 242 243 244 245 246
285 257 248 241 232 230 228 225 226 226 226 227 227 228 230 232 233 233 234 234 235 237 238 239 239 240 240 240 241 242 242 242 242 243 244 245 247 248
314 290 272 257 243 240 235 231 230 229 229 229 230 231 232 233 234 236 237 237 237 239 240 242 242 242 242 242 242 243 244 244 245 246 246 247 247 248
328 313 298 275 257 251 244 237 234 231 230 232 234 235 235 235 235 236 237 239 241 242 243 244 244 244 244 244 243 244 245 246 246 247 248 249 249 250
328 319 306 286 268 259 251 244 240 237 235 235 238 238 238 238 237 239 240 242 244 245 245 246 246 245 245 244 244 245 246 247 248 248 249 250 249 250
328 319 308 292 277 265 257 250 244 241 239 239 240 241 241 241 241 243 243 244 245 246 247 248 248 248 247 245 244 245 246 247 248 249 249 250 250 250
326 321 315 303 287 272 267 257 249 245 244 242 242 243 244 243 243 244 245 246 248 248 249 250 250 250 248 248 247 247 247 248 249 250 250 250 251 251
320 316 312 306 292 281 274 263 253 250 247 245 244 246 247 246 245 246 248 248 250 251 251 252 252 252 250 249 249 249 250 250 251 251 252 252 251 252
318 314 310 304 293 284 277 268 262 258 253 249 246 247 248 248 247 248 249 250 251 253 254 255 255 254 253 252 250 250 251 252 253 253 253 253 254 254
317 314 310 303 294 289 285 278 271 265 258 251 248 250 250 250 251 252 252 252 252 253 255 256 255 254 254 255 254 253 253 253 254 255 254 254 253 254
315 312 307 303 296 289 286 281 276 270 265 256 255 255 255 256 257 256 255 256 256 256 255 256 256 255 256 257 256 256 255 254 254 254 255 254 255 256
312 311 307 301 298 291 286 281 276 272 267 264 262 260 259 259 260 261 261 261 261 261 260 259 259 258 257 258 258 257 257 256 256 256 255 255 256 257
306 306 304 302 299 294 288 282 277 273 271 269 266 265 263 264 263 263 264 264 264 264 265 266 265 263 261 260 261 261 261 260 261 259 259 258 257 257
299 301 302 301 299 296 290 285 281 276 273 271 269 268 268 267 267 267 267 268 267 267 267 268 268 266 265 265 264 264 264 264 263 260 261 260 260 260
293 295 296 297 297 297 293 289 286 281 277 274 272 272 271 271 271 271 271 272 271 271 271 271 270 269 269 268 267 266 266 266 265 263 262 261 260 261
287 289 291 293 295 296 295 292 289 286 281 277 276 276 275 274 274 274 275 275 274 273 273 273 274 273 272 273 272 270 269 268 267 266 265 264 263 262
282 283 286 288 291 294 295 294 292 289 286 282 280 279 278 277 277 277 277 278 278 278 277 276 276 276 276 276 275 273 272 271 270 268 267 267 265 264
279 281 282 284 286 289 292 293 293 290 288 285 284 283 282 281 280 280 279 280 279 279 279 280 280 280 279 278 277 276 275 274 273 272 270 268 266 266
276 278 280 281 283 286 289 291 292 291 289 287 285 284 284 284 283 284 284 283 282 282 281 281 281 281 282 281 279 278 277 276 275 274 274 272 269 267
274 276 278 279 281 283 286 288 290 291 290 289 287 286 285 285 285 285 286 287 286 286 284 284 283 283 283 283 282 282 281 279 277 276 275 274 272 270
273 275 277 279 280 282 284 286 288 289 290 289 289 289 288 287 286 286 287 287 287 287 287 286 286 285 285 284 284 284 284 283 281 279 277 275 274 272
272 274 277 279 280 282 284 286 287 288 289 289 290 290 290 289 288 288 288 289 289 289 288 287 286 286 287 287 286 286 285 285 283 282 280 278 275 273
270 274 276 278 280 282 284 286 287 288 289 289 290 291 291 290 290 289 290 290 290 291 290 288 288 288 288 288 288 288 287 286 285 284 283 281 279 277
Height
5773 5773 5774 5775 5776 5777 5779 5782 5785 5787 5790 5793 5796 5799 5803 5806 5809 5812 5815 5818 5821 5824 5827 5830 5832 5835 5838 5840 5843 5845 5847 5849 5851 5853 5855 5857 5858 5860
5772 5772 5772 5773 5774 5775 5777 5779 5781 5784 5786 5789 5792 5795 5798 5801 5804 5806 5809 5812 5815 5818 5821 5823 5826 5828 5831 5833 5836 5838 5840 5842 5844 5846 5848 5850 5852 5854
5771 5771 5771 5771 5771 5772 5774 5776 5778 5780 5782 5784 5787 5789 5792 5795 5798 5800 5803 5806 5809 5811 5814 5816 5818 5821 5824 5826 5829 5831 5833 5835 5837 5839 5841 5843 5845 5847
5770 5770 5769 5769 5769 5769 5770 5772 5774 5776 5778 5780 5782 5784 5786 5789 5791 5794 5797 5799 5802 5804 5806 5809 5811 5813 5815 5818 5820 5823 5825 5827 5829 5831 5833 5835 5837 5839
5769 5768 5767 5767 5766 5767 5767 5768 5769 5771 5773 5775 5777 5779 5781 5783 5785 5788 5790 5793 5795 5797 5799 5800 5802 5805 5807 5809 5812 5814 5816 5819 5821 5823 5825 5827 5829 5830
5768 5767 5765 5764 5764 5764 5764 5764 5765 5767 5768 5770 5772 5774 5775 5777 5779 5781 5784 5786 5788 5789 5791 5792 5794 5796 5798 5800 5803 5805 5807 5809 5811 5813 5815 5817 5819 5821
5766 5765 5763 5762 5761 5761 5761 5761 5761 5762 5764 5765 5767 5768 5770 5772 5773 5775 5777 5779 5780 5781 5783 5784 5786 5787 5788 5791 5793 5795 5797 5799 5801 5803 5805 5807 5809 5811
5764 5762 5761 5760 5759 5758 5758 5757 5758 5758 5759 5760 5761 5763 5764 5765 5767 5769 5770 5771 5773 5774 5774 5775 5776 5778 5779 5781 5783 5785 5787 5789 5790 5792 5794 5796 5797 5799
5762 5760 5759 5757 5756 5756 5755 5754 5754 5754 5754 5755 5756 5757 5758 5760 5761 5762 5763 5764 5765 5766 5766 5767 5768 5769 5770 5771 5773 5775 5776 5778 5779 5781 5782 5784 5786 5788
5759 5758 5756 5755 5753 5753 5752 5751 5750 5750 5750 5751 5752 5752 5753 5754 5755 5756 5756 5757 5758 5758 5759 5760 5760 5761 5761 5762 5763 5765 5766 5768 5769 5770 5771 5773 5774 5776
5757 5755 5753 5752 5751 5749 5748 5748 5747 5747 5747 5747 5748 5748 5748 5749 5749 5750 5751 5751 5751 5752 5752 5752 5752 5753 5753 5754 5754 5755 5756 5757 5758 5759 5760 5762 5763 5765
5754 5752 5750 5749 5747 5746 5745 5744 5744 5743 5743 5743 5743 5743 5743 5744 5744 5744 5744 5745 5744 5745 5744 5745 5745 5745 5745 5745 5745 5746 5746 5747 5748 5749 5749 5751 5752 5753
5750 5748 5747 5745 5744 5742 5741 5740 5739 5739 5738 5738 5738 5738 5738 5738 5738 5738 5738 5738 5738 5738 5737 5737 5737 5736 5737 5737 5736 5736 5736 5737 5737 5738 5738 5739 5740 5741
5746 5745 5743 5741 5740 5738 5737 5736 5735 5734 5734 5733 5733 5733 5732 5732 5732 5732 5731 5731 5731 5730 5730 5729 5729 5729 5729 5728 5728 5727 5727 5726 5727 5727 5727 5728 5728 5729
5742 5740 5739 5737 5736 5734 5733 5731 5730 5729 5728 5728 5727 5727 5726 5726 5725 5725 5724 5724 5723 5722 5722 5721 5721 5720 5720 5719 5718 5717 5717 5716 5715 5716 5716 5716 5716 5716
5736 5735 5734 5733 5731 5730 5728 5727 5725 5724 5723 5722 5721 5721 5720 5719 5718 5718 5717 5716 5715 5714 5713 5712 5712 5711 5710 5709 5708 5707 5705 5705 5704 5703 5703 5703 5702 5702
5730 5729 5728 5727 5726 5724 5723 5721 5720 5719 5717 5716 5715 5714 5713 5712 5711 5710 5709 5708 5707 5705 5704 5703 5702 5701 5699 5698 5696 5695 5693 5692 5691 5690 5689 5689 5688 5688
5724 5723 5722 5721 5720 5719 5717 5716 5714 5712 5711 5710 5708 5707 5706 5705 5703 5702 5701 5699 5698 5696 5695 5693 5691 5690 5688 5687 5685 5682 5680 5679 5677 5676 5675 5674 5675 5673
5717 5716 5715 5714 5713 5712 5711 5709 5707 5706 5704 5703 5701 5700 5698 5697 5695 5693 5692 5690 5689 5687 5685 5683 5680 5678 5676 5674 5672 5669 5667 5665 5663 5661 5660 5659 5659 5658
5709 5708 5707 5706 5705 5704 5703 5702 5700 5698 5697 5695 5693 5692 5690 5688 5686 5685 5683 5681 5679 5676 5674 5672 5669 5667 5664 5662 5660 5657 5652 5650 5648 5646 5644 5642 5642 5641
5700 5699 5699 5698 5697 5696 5695 5694 5692 5691 5689 5687 5685 5683 5681 5679 5677 5675 5673 5670 5668 5666 5663 5660 5657 5654 5651 5649 5647 5644 5639 5635 5632 5630 5628 5626 5626 5625
5690 5690 5690 5689 5688 5687 5686 5685 5683 5682 5680 5678 5676 5674 5671 5669 5667 5665 5662 5660 5657 5654 5651 5648 5645 5642 5639 5636 5633 5630 5627 5622 5617 5613 5611 5609 5607 5608
5680 5680 5680 5679 5679 5678 5677 5675 5674 5672 5670 5668 5666 5664 5661 5659 5656 5654 5651 5648 5645 5642 5639 5636 5633 5629 5626 5622 5619 5615 5612 5607 5603 5599 5596 5592 5590 5589